Wind_Speed
19 16 19 21 19 19 11 8 16 11 6 10 7 6 15 11 13 14 15 16 17 18 18 23 23 22 21 20 19 19 18 17 17 17 15 13 13 10 9 8 3 3 4 4
18 21 21 18 20 16 8 15 8 7 7 8 9 11 8 14 12 13 14 17 16 18 18 21 26 25 23 22 21 20 20 19 19 17 15 13 11 9 8 7 4 5 4 5
21 18 18 21 19 16 14 18 13 6 2 13 9 15 3 13 14 12 14 14 18 18 19 21 25 26 26 25 24 23 22 22 20 18 15 11 7 7 6 9 8 8 7 6
13 16 15 20 18 12 19 16 15 3 7 11 4 8 9 16 11 16 14 15 16 19 19 19 23 27 28 27 25 23 23 22 22 20 16 15 13 14 15 10 9 7 8 6
16 17 15 18 14 17 18 17 8 7 13 15 15 8 5 7 5 8 12 15 15 18 20 19 21 27 27 27 26 24 24 24 23 24 23 19 17 15 9 7 10 5 7 7
17 10 10 15 18 18 18 17 9 12 14 13 14 12 3 1 4 5 6 7 10 16 20 21 23 27 25 25 25 24 24 25 25 23 23 20 15 17 9 9 5 6 7 8
16 11 13 14 15 16 17 15 10 13 14 11 15 3 7 11 6 9 4 1 4 13 19 20 19 19 24 25 26 24 24 24 25 25 22 22 20 15 12 6 8 8 8 9
13 14 15 13 17 11 13 17 13 11 11 12 5 3 3 6 3 8 4 4 6 11 15 18 20 21 22 22 24 23 23 23 23 24 23 21 20 18 17 16 10 10 11 10
10 14 19 12 16 17 16 15 21 20 19 7 6 10 6 10 9 7 9 9 10 9 11 15 19 23 23 24 24 25 22 22 23 24 23 21 20 21 19 15 15 12 11 10
5 9 9 10 11 13 14 8 13 6 6 4 5 2 10 12 5 6 11 11 11 10 9 12 14 21 23 25 25 26 25 24 24 24 23 22 22 22 18 18 16 16 13 11
12 13 10 11 12 14 9 10 8 10 4 5 7 9 16 10 6 8 6 6 10 13 10 10 9 11 18 21 26 26 25 25 25 26 25 23 22 20 18 18 18 16 13 13
16 8 9 14 14 17 16 12 13 6 11 6 10 10 13 12 9 7 9 8 8 2 4 4 6 9 12 18 23 26 26 26 25 25 24 24 22 20 20 20 18 16 16 16
13 8 10 12 10 10 11 9 13 16 7 6 9 9 13 12 11 9 9 9 6 4 5 5 4 5 9 14 16 20 24 25 26 25 25 23 22 21 21 19 18 17 16 16
8 18 13 10 13 16 16 7 10 14 7 9 7 17 12 11 12 10 9 8 9 7 5 5 2 6 8 10 15 17 19 22 22 23 26 26 26 25 24 23 21 19 20 19
12 15 6 9 7 2 4 9 9 13 12 7 8 15 14 11 11 11 10 8 9 8 9 8 8 3 5 10 12 16 18 19 22 23 24 25 25 21 20 21 21 21 21 21
14 7 2 4 1 5 8 12 6 12 5 5 13 17 16 14 10 10 10 10 10 9 8 7 7 5 4 7 12 15 18 20 19 18 21 22 25 26 26 25 23 21 20 20
14 7 6 9 5 3 12 10 11 9 8 13 8 19 16 12 11 9 7 8 7 6 6 5 6 7 8 2 9 15 17 14 11 7 8 11 11 15 19 23 24 25 26 20
14 12 8 9 9 9 11 6 7 3 9 8 8 8 14 11 11 8 6 7 6 6 5 5 6 8 9 9 3 9 11 11 14 18 4 4 14 14 20 23 24 26 26 25
7 11 6 4 9 5 11 10 8 8 8 9 7 8 7 4 5 12 9 7 6 5 4 6 7 9 7 6 6 6 7 8 13 17 26 38 33 20 24 25 25 26 26 24
11 11 8 8 12 6 21 14 7 5 7 4 8 7 4 3 7 10 8 7 6 4 3 6 9 8 7 9 6 6 6 7 10 15 22 27 18 23 25 25 27 28 27 26
10 9 11 10 10 5 11 8 5 5 3 6 7 6 5 3 7 7 5 5 5 3 5 8 8 8 1 8 10 10 9 8 7 13 17 21 26 26 23 25 28 33 31 30
6 9 11 12 10 6 11 4 7 6 4 6 2 1 1 3 3 3 3 3 3 6 10 10 8 7 9 3 7 9 10 10 9 10 11 18 21 27 29 32 29 27 25 20
8 10 9 6 4 2 5 4 7 6 1 1 1 4 4 5 4 4 1 2 4 8 9 11 10 9 11 5 6 11 11 11 13 12 12 13 19 28 35 34 34 32 32 24
5 3 7 10 7 5 6 1 1 1 3 3 5 5 4 4 2 4 4 4 6 9 9 12 12 13 14 12 8 11 11 11 12 14 10 15 18 25 32 32 35 34 35 34
6 4 4 6 7 2 2 1 3 1 3 4 2 4 5 5 6 6 5 5 6 8 10 13 13 14 14 15 11 12 11 10 12 14 11 18 23 28 27 28 28 30 30 27
5 6 7 6 9 7 6 4 3 5 4 5 7 7 8 9 9 8 8 9 8 9 12 14 15 18 19 18 13 10 10 9 10 10 13 16 19 24 22 23 23 24 25 29
Wind_Direction
204 219 226 228 229 273 289 296 281 121 85 306 331 311 151 178 195 195 189 186 193 196 189 183 189 182 176 173 176 184 190 186 188 195 199 209 215 216 233 241 135 233 260 242
214 228 229 234 249 236 242 272 247 174 121 268 306 301 169 163 201 212 203 186 199 191 196 194 191 191 190 185 184 186 192 192 196 201 208 215 219 222 224 226 210 235 235 235
230 215 230 245 235 246 237 248 267 333 87 280 257 264 140 164 183 210 211 208 189 199 197 191 194 198 194 191 192 193 193 194 201 211 206 212 232 257 223 239 236 229 225 228
232 252 244 223 243 231 240 233 271 279 268 279 31 299 257 149 198 190 198 206 204 191 197 197 195 197 197 195 195 197 197 197 201 207 210 206 213 223 220 213 201 188 206 220
223 225 229 252 226 236 244 260 296 264 254 263 244 254 269 211 237 135 183 191 209 194 196 201 193 190 199 195 195 196 197 199 204 204 213 207 220 230 238 224 132 196 202 215
247 183 252 237 235 237 246 240 252 262 254 263 268 236 210 102 37 13 135 178 207 196 193 191 201 185 195 191 192 193 193 195 201 205 212 220 216 237 258 194 156 199 216 211
222 208 229 249 231 225 232 231 238 232 234 241 251 120 317 330 341 48 334 141 184 190 190 188 195 190 185 188 192 191 189 190 197 202 208 211 216 219 230 208 211 196 206 214
199 208 215 193 242 198 223 236 234 228 252 264 51 196 349 42 295 83 123 119 140 174 180 188 184 198 184 191 192 197 188 193 194 199 206 207 209 210 216 208 215 202 210 213
191 242 170 206 214 240 196 222 241 262 279 263 313 79 171 82 50 109 109 122 127 147 163 186 185 193 191 191 196 199 199 198 200 198 199 202 204 209 211 212 203 211 210 201
282 203 161 179 211 233 273 219 221 238 279 321 124 237 105 85 62 109 132 125 126 138 158 174 190 195 197 193 197 201 198 198 202 198 197 200 204 208 207 203 203 214 202 201
272 246 154 161 207 197 197 236 250 280 342 310 245 101 104 113 85 84 103 126 139 149 170 161 177 200 198 205 201 201 198 198 199 201 197 201 204 206 205 206 206 210 201 196
241 279 163 192 193 231 208 218 225 216 207 228 314 105 103 104 102 82 89 62 68 44 135 161 172 182 213 203 211 202 201 203 207 203 194 201 202 201 203 207 205 204 202 197
223 244 143 158 174 209 239 229 252 237 250 106 282 111 129 114 93 69 74 101 96 121 138 166 156 170 199 205 212 214 201 210 206 206 201 200 200 200 201 201 200 199 198 197
305 272 66 253 180 163 211 196 257 286 214 178 186 133 126 113 110 100 87 88 93 82 52 51 189 159 212 213 204 215 206 210 210 204 205 198 196 195 195 192 190 195 190 190
246 267 111 50 76 44 324 186 200 267 279 52 22 118 113 105 99 96 97 92 92 77 60 46 27 29 229 216 207 217 216 214 206 207 202 199 191 191 192 191 186 187 183 183
238 278 249 169 205 263 206 244 251 229 272 276 186 109 121 121 121 110 109 105 99 81 61 36 18 18 353 226 217 222 222 216 216 213 207 200 189 189 186 179 183 180 179 183
231 229 205 245 140 260 248 195 216 206 208 244 232 126 134 140 134 124 119 106 87 67 55 19 338 338 13 18 223 227 224 220 218 209 240 252 235 205 199 184 176 177 171 173
218 237 211 106 256 230 93 15 31 269 195 270 139 101 102 123 132 125 109 104 89 63 32 356 323 326 344 350 301 236 232 215 187 166 112 286 234 211 205 194 183 177 173 173
244 230 232 232 225 179 165 167 206 217 253 211 263 106 126 137 141 161 118 108 89 66 26 349 324 327 324 322 309 279 250 225 203 215 187 213 221 210 222 199 188 178 172 171
256 256 262 213 278 176 260 148 135 4 261 197 200 150 157 164 249 90 106 114 104 77 19 348 354 320 337 317 310 297 279 219 226 222 209 220 216 222 204 194 187 174 173 176
234 258 245 244 230 269 35 110 130 212 16 56 171 195 173 242 67 107 115 81 64 42 350 340 358 1 339 314 313 302 295 285 257 222 217 211 210 208 200 198 185 175 179 171
249 209 237 254 264 264 350 182 239 54 40 333 274 38 174 124 132 95 84 25 348 341 340 344 339 343 322 282 291 294 301 308 291 267 253 221 211 190 194 187 175 171 166 164
253 296 303 340 62 114 343 36 26 354 31 296 150 166 173 192 176 147 219 296 312 326 329 323 325 320 314 348 324 305 303 294 291 273 254 210 188 188 191 180 167 167 164 165
197 315 271 282 287 28 339 56 347 14 318 210 205 183 192 209 178 248 264 292 327 320 319 322 324 323 326 321 302 288 291 286 276 266 238 217 192 187 185 184 177 173 175 187
43 164 228 263 247 222 150 36 41 242 259 241 206 233 222 249 258 262 279 292 306 322 320 324 317 312 311 301 292 291 291 285 270 259 216 211 198 190 186 189 190 190 193 189
190 228 235 45 39 356 87 61 336 300 266 272 278 256 253 260 275 290 292 303 323 316 317 307 306 304 306 304 289 282 280 271 264 249 227 204 197 192 194 191 194 200 198 200
Height
739 752 757 744 735 729 738 737 768 736 736 745 743 740 736 737 740 743 746 755 759 764 766 772 778 782 788 795 801 805 809 812 816 819 821 823 822 823 823 824 825 829 830 832
742 755 733 726 726 735 740 746 742 731 733 744 741 742 725 732 739 737 740 745 753 757 760 767 774 778 783 790 796 802 806 810 814 816 818 819 820 820 822 823 825 828 828 830
746 734 727 731 736 742 747 745 739 745 735 733 739 743 736 724 729 731 731 733 738 748 754 758 766 772 779 785 791 797 802 806 811 813 816 819 820 822 822 823 825 827 828 829
738 722 728 735 740 736 757 728 733 742 757 769 734 778 737 729 732 727 728 729 731 739 745 749 757 766 772 779 786 793 799 803 808 811 813 816 817 816 815 818 820 823 826 827
743 736 736 743 739 734 747 725 734 740 750 751 745 761 738 721 729 722 724 722 724 727 735 744 748 757 765 773 780 787 793 798 803 806 809 812 815 813 814 816 818 823 824 826
729 713 725 734 727 727 724 733 743 744 751 774 745 751 745 734 732 721 714 717 716 719 727 736 743 750 759 766 774 781 787 792 798 802 806 809 811 814 813 815 819 823 824 825
741 737 728 723 737 726 732 748 780 784 773 772 725 746 741 720 713 717 722 716 713 713 720 729 739 744 753 761 769 775 782 788 793 798 802 806 809 812 814 817 819 821 823 824
752 763 734 722 733 738 744 744 767 795 776 753 720 757 743 712 707 711 713 712 713 714 718 725 736 743 750 758 765 772 778 784 788 793 798 802 806 809 811 813 814 818 820 822
736 745 712 716 721 722 734 755 725 743 728 748 735 729 718 713 715 716 717 717 718 718 719 725 731 739 745 754 760 767 774 781 785 788 793 797 801 803 805 809 813 815 817 818
718 744 720 722 717 717 727 713 749 743 779 784 751 756 752 739 734 719 718 720 721 722 724 724 728 733 740 747 755 761 768 774 779 783 788 792 795 797 801 806 809 812 814 816
710 720 734 723 739 737 738 740 728 722 733 763 771 758 722 735 729 728 724 716 716 719 723 725 728 733 737 743 748 754 762 768 771 776 781 786 790 795 800 804 807 810 813 816
710 715 741 737 714 705 712 726 724 750 763 743 746 762 715 723 724 723 725 722 720 719 719 723 726 733 737 740 745 749 756 761 767 770 776 781 786 791 795 799 804 808 811 814
707 719 740 740 727 718 729 715 712 709 712 746 760 761 715 720 727 727 727 726 728 726 726 725 729 735 738 740 743 746 751 756 760 766 772 777 782 787 791 796 800 803 808 812
706 706 729 742 727 718 735 724 718 714 736 735 736 743 735 731 734 734 732 729 729 729 730 730 730 735 740 741 744 747 751 755 758 761 764 768 773 777 782 787 793 799 802 808
711 718 713 713 712 713 718 721 724 731 719 740 732 732 733 733 735 736 734 734 734 735 735 737 735 738 742 743 746 749 751 753 754 755 759 763 770 777 782 786 789 794 800 804
703 726 715 729 719 720 730 720 719 723 718 722 735 730 721 728 734 738 739 740 742 743 743 744 741 740 740 742 745 746 747 749 754 758 760 763 767 770 774 778 786 792 798 803
712 712 730 742 723 729 743 722 722 719 717 720 732 723 718 732 736 740 741 740 743 744 746 748 746 739 739 741 742 743 745 752 760 767 773 778 779 780 782 781 781 786 791 799
711 713 719 748 739 770 719 710 707 718 716 709 716 697 712 727 731 736 736 739 743 746 748 748 745 741 741 741 740 742 746 752 757 760 767 776 775 773 778 779 779 782 787 792
690 709 726 741 745 728 723 718 724 730 730 711 717 715 721 724 724 735 735 739 743 746 747 746 743 742 742 743 742 743 746 751 755 756 748 755 759 763 775 775 776 780 785 789
697 698 720 733 752 780 750 700 699 708 747 709 713 718 723 727 745 745 736 739 741 744 747 746 742 739 741 741 740 742 745 748 750 753 759 762 759 764 768 770 774 776 778 781
728 727 735 732 745 727 708 703 704 757 749 708 711 715 722 735 737 738 737 739 740 744 745 745 743 742 744 745 743 741 741 742 744 746 748 753 757 761 763 766 766 764 771 772
733 739 737 730 743 764 710 711 735 729 721 717 717 716 723 726 733 736 737 739 740 741 742 743 743 743 741 740 743 742 741 740 741 743 743 744 748 752 753 756 762 768 770 765
748 728 733 735 755 727 718 719 717 715 720 724 724 723 724 728 732 734 737 739 740 740 741 742 741 742 741 740 743 743 741 741 740 739 739 741 744 744 745 750 755 761 766 754
727 725 733 732 721 723 720 719 722 721 722 722 722 724 728 730 732 735 735 736 738 739 740 740 742 742 742 741 742 743 741 739 739 738 737 738 739 740 742 746 750 753 756 764
729 729 732 733 723 723 723 722 724 725 725 723 723 726 728 729 731 732 734 736 738 740 741 742 742 741 741 739 738 739 738 737 735 734 735 735 737 738 741 744 746 747 750 753
720 731 736 736 726 731 729 729 729 728 727 727 727 728 728 729 731 731 733 735 738 741 743 743 741 740 737 735 734 735 735 733 733 733 733 734 735 737 740 741 745 748 752 756